Temperature
12 12 12 11 11 11 11 11 11 11 11 11 11 11 11 11 11 11 11 11 11 11 11 11 11 12 12 12 12 12 11 11 11 11 11 12 12 12 12 12 12 12 12
12 12 11 11 11 11 11 11 11 11 11 11 11 11 11 11 11 11 11 11 11 11 11 11 11 11 11 11 11 11 11 11 11 11 11 10 11 11 11 11 11 11 11
12 12 11 11 11 10 10 10 10 10 10 10 10 10 10 10 10 10 10 10 10 11 11 11 11 11 11 11 11 11 10 11 11 10 10 10 10 10 11 11 11 11 11
12 12 11 11 10 10 10 10 10 10 10 10 10 10 10 10 10 10 10 10 10 10 10 10 10 10 10 10 11 10 10 10 10 10 10 10 10 10 10 10 10 10 10
12 12 11 11 10 10 10 10 10 10 9 9 9 9 9 9 9 9 9 9 9 10 10 10 10 10 10 10 10 10 10 10 10 10 10 10 10 9 9 9 10 10 10
12 12 11 10 10 10 10 10 9 9 9 9 9 9 9 9 9 9 9 9 9 9 9 9 9 9 9 10 10 10 10 10 10 9 9 9 9 9 9 9 9 9 9
12 11 11 10 10 9 9 9 9 9 9 9 9 9 9 8 8 8 8 9 9 9 9 9 9 9 9 9 9 9 9 9 9 9 9 9 9 9 9 8 8 8 8
11 11 10 10 10 9 9 9 9 9 9 9 9 8 8 8 8 8 8 8 8 8 8 8 8 9 9 9 9 9 9 9 9 9 9 9 9 8 8 8 8 8 8
11 10 10 10 9 9 9 9 9 9 8 8 8 8 8 8 8 8 8 8 8 8 8 8 8 8 8 8 8 8 8 8 8 8 8 8 8 8 8 8 7 7 7
10 10 10 10 9 9 9 8 8 8 8 8 8 8 8 7 7 7 7 7 7 7 7 7 7 8 8 7 8 8 8 8 8 8 8 8 8 7 7 7 7 7 6
10 10 9 9 9 9 9 8 8 8 8 8 8 7 7 7 7 7 7 7 7 7 7 7 7 7 7 7 7 7 7 7 7 7 7 7 7 7 7 7 7 6 6
10 9 9 9 9 8 8 8 8 8 8 8 7 7 7 7 7 7 7 7 7 7 7 6 6 6 7 7 7 7 6 7 7 7 6 6 6 6 6 6 6 6 6
9 9 9 9 8 8 8 8 8 8 8 7 7 7 7 7 7 7 6 7 6 6 6 6 6 6 6 6 6 6 6 6 6 6 6 6 6 6 6 6 6 6 5
9 9 8 8 8 8 8 8 8 7 7 7 7 7 7 7 7 6 6 6 6 6 6 6 6 6 6 6 6 6 6 6 6 6 6 5 5 5 5 5 5 5 5
9 8 8 8 8 8 8 8 7 7 7 7 7 7 6 6 6 6 6 6 6 6 6 6 6 6 6 6 6 6 5 5 5 5 5 5 5 5 5 5 5 5 5
8 8 8 7 7 7 7 7 7 7 7 7 6 6 6 6 6 6 6 6 6 6 6 6 6 6 6 5 5 5 5 5 5 5 5 5 5 5 5 4 4 4 4
7 7 7 7 7 7 7 6 6 6 6 6 6 6 6 6 6 6 6 6 6 5 5 5 5 5 5 5 5 5 5 5 5 5 4 4 4 4 4 4 4 4 4
7 7 7 6 7 7 6 6 6 6 6 6 6 6 5 5 6 5 6 6 5 5 5 5 5 5 5 5 5 4 4 4 4 4 4 4 4 4 4 4 3 3 3
6 6 6 6 6 6 6 6 6 6 6 5 5 5 5 5 5 5 5 5 5 5 5 5 5 5 5 4 4 4 4 4 4 4 4 3 3 3 3 3 3 3 3
5 5 5 6 6 6 6 6 5 5 5 5 5 5 5 5 5 5 5 5 4 5 5 4 4 4 4 4 4 3 3 3 3 3 3 3 3 3 2 2 2 2 2
5 5 5 5 5 5 5 5 5 5 5 4 4 5 5 4 4 4 4 4 4 4 4 4 4 4 4 4 3 3 3 3 3 2 3 3 2 2 2 2 2 2 1
4 4 4 4 4 4 4 4 4 4 4 4 4 4 4 4 4 4 4 4 4 3 3 3 3 3 3 3 3 3 2 2 2 2 2 2 2 2 1 1 1 1 1
4 4 4 4 4 4 4 4 4 4 4 4 4 4 4 4 4 3 3 3 3 3 3 3 3 3 3 3 3 2 2 2 2 2 2 1 1 1 1 1 1 0 0
4 3 3 3 3 3 3 3 3 3 3 3 3 3 3 3 3 3 3 3 3 3 3 3 3 3 3 2 2 2 2 2 1 1 1 1 1 0 0 0 0 0 -0
3 3 3 3 3 3 3 3 3 3 3 3 3 3 3 3 3 3 3 3 3 3 3 3 3 2 2 2 2 2 1 1 1 1 1 0 0 0 0 -0 -0 -0 -1
3 3 2 2 2 2 2 2 2 2 2 2 2 2 2 2 2 2 2 2 2 2 2 2 2 2 2 2 1 1 1 1 1 0 0 0 0 -0 -0 -0 -1 -1 -1
Wind_Speed
4 5 4 4 3 2 2 1 1 1 1 1 0 0 1 1 1 1 1 1 2 3 2 1 2 2 2 2 2 2 2 2 1 0 1 2 3 3 3 2 2 2 4
4 4 4 4 3 2 2 1 1 1 0 0 1 0 1 1 1 1 1 1 1 2 2 1 2 2 1 2 2 2 2 1 2 2 1 2 2 2 3 2 2 2 2
4 4 4 3 3 3 2 1 1 1 0 0 1 1 1 1 1 1 1 2 2 2 2 2 2 2 2 2 2 2 3 2 2 2 2 2 3 1 2 2 2 2 2
3 3 3 4 3 3 3 2 2 2 1 1 1 1 2 2 2 1 2 2 2 2 2 2 2 2 2 3 3 3 3 3 3 2 2 2 1 1 1 2 2 2 2
4 3 3 3 3 4 3 3 2 2 2 1 2 2 2 2 2 2 2 2 2 2 1 2 2 3 3 3 3 3 3 3 4 3 2 2 1 2 2 3 3 2 2
3 3 3 3 2 3 3 3 3 3 3 3 3 3 3 3 3 3 3 2 2 2 2 2 2 3 2 3 3 3 4 4 4 3 2 2 2 2 2 3 2 3 3
2 2 3 3 3 3 4 4 4 4 4 4 4 4 5 4 4 4 3 3 2 2 3 2 2 2 3 3 3 3 4 4 4 4 3 3 2 1 2 2 2 2 2
1 1 2 4 4 4 4 4 5 4 4 4 4 4 5 4 4 4 4 3 3 3 3 3 3 3 3 3 3 3 3 3 4 4 3 2 2 2 2 2 2 2 3
0 1 2 3 5 5 5 5 5 5 5 5 4 5 5 5 5 4 3 3 3 3 3 3 3 3 3 3 2 2 3 3 3 3 3 3 2 2 2 2 2 3 3
1 2 2 3 4 5 5 5 6 6 5 5 4 4 5 5 4 4 4 4 4 3 4 4 3 3 3 3 3 2 2 3 2 2 3 3 2 2 2 2 2 3 4
2 2 3 3 3 4 5 5 5 5 5 5 5 4 4 5 5 5 5 4 4 4 4 4 4 4 4 3 3 3 3 3 3 2 3 3 2 2 2 2 2 2 2
2 2 3 3 3 3 4 5 5 5 5 5 5 5 5 5 5 5 5 5 5 5 5 4 4 4 4 4 4 4 4 4 4 4 4 4 3 3 2 2 2 2 2
3 2 2 3 3 4 4 5 5 6 5 5 5 5 5 5 6 6 5 5 5 5 5 4 4 4 4 4 4 4 4 4 4 4 4 4 4 3 2 2 2 2 2
3 3 3 4 4 4 4 5 5 5 6 6 6 6 6 6 6 5 5 5 5 5 5 4 4 4 4 4 4 4 4 4 4 4 4 4 4 4 3 2 2 2 1
4 4 4 5 4 4 4 5 5 5 5 6 7 7 7 6 5 5 5 5 5 5 5 5 5 4 4 4 4 4 4 4 3 3 3 4 4 5 4 3 3 2 2
5 6 6 5 5 5 5 5 5 5 5 6 7 7 6 6 6 6 5 5 5 5 5 5 5 5 4 6 7 5 4 4 4 4 3 3 4 5 4 4 3 3 3
6 6 6 6 6 6 5 6 6 5 5 6 6 6 6 6 6 6 6 6 6 6 6 6 5 5 6 8 7 7 4 4 3 4 3 3 3 3 3 3 2 2 3
7 7 7 7 6 5 5 5 5 5 5 6 6 6 6 6 6 6 7 7 6 6 6 6 6 5 7 9 9 8 5 4 4 4 4 4 4 3 4 3 2 2 2
7 7 7 7 6 6 5 5 5 5 5 6 6 6 6 6 6 7 7 6 6 6 6 6 6 6 6 9 9 8 4 4 4 4 4 5 5 6 6 4 3 2 1
7 7 7 7 7 6 4 4 6 6 7 7 7 6 6 6 7 7 7 6 6 6 6 6 6 6 6 9 10 9 4 4 4 4 4 6 6 7 6 4 4 3 2
8 8 8 7 7 6 5 6 6 7 7 6 5 6 6 7 7 6 5 5 5 5 5 5 5 6 7 8 10 10 5 5 4 4 4 4 7 7 6 5 4 4 2
9 8 7 7 7 6 6 7 8 7 6 5 6 6 6 6 5 5 5 5 5 5 5 5 5 4 5 7 9 11 10 7 5 4 4 4 7 6 6 4 4 4 2
8 7 7 8 7 6 6 8 8 6 5 5 6 6 6 6 6 6 6 5 6 6 5 5 6 5 4 6 10 11 10 10 6 4 6 6 6 5 4 4 4 3 2
8 7 7 8 8 7 7 7 7 6 5 6 7 6 6 6 6 6 6 6 6 6 6 6 6 5 5 5 5 6 6 7 6 4 5 6 6 5 4 3 2 2 2
7 7 7 8 9 8 8 7 6 6 6 7 6 6 6 6 6 6 6 7 7 8 8 7 6 6 7 8 10 7 6 5 5 5 3 3 3 3 3 2 2 2 2
8 8 8 8 9 8 8 7 7 6 7 6 6 5 5 5 5 5 5 7 8 9 10 9 7 6 8 9 11 11 10 10 10 6 4 4 4 4 4 3 3 2 2
Wind_Direction
149 132 128 130 127 118 107 94 78 60 56 8 295 276 275 289 308 347 359 333 310 302 291 285 276 271 244 249 238 219 225 228 183 138 299 284 258 233 227 212 194 186 186
152 139 136 138 148 151 141 143 118 63 54 306 304 262 276 267 252 288 334 311 315 302 289 260 256 253 245 251 250 242 215 222 182 162 183 269 280 269 236 204 195 204 190
165 157 157 161 170 173 169 184 176 192 179 21 353 333 310 302 294 300 299 302 310 313 313 292 264 242 220 230 242 241 223 223 219 189 179 198 230 278 263 230 208 191 195
172 168 169 174 176 176 162 175 203 201 198 179 212 254 254 258 262 252 251 269 267 266 273 285 269 245 231 225 227 231 228 214 219 232 234 220 182 198 272 289 252 219 221
178 176 169 177 171 159 159 182 211 212 197 203 222 234 264 269 278 279 272 275 265 249 250 266 257 245 239 232 226 228 227 219 216 213 222 235 241 230 215 253 258 264 249
164 158 150 149 161 156 160 187 212 220 203 209 224 226 240 257 271 270 264 267 270 262 250 265 256 249 241 235 228 224 227 224 224 222 216 205 203 212 219 242 246 252 257
147 155 158 166 181 184 186 198 213 223 212 212 224 228 229 234 245 257 256 262 268 266 256 251 252 254 245 239 229 227 224 221 223 221 224 222 221 212 224 235 254 265 272
110 178 202 189 191 198 196 203 217 227 217 218 228 231 231 230 235 241 247 248 248 253 260 255 248 251 252 248 232 229 228 224 226 229 218 221 223 214 216 213 219 263 271
89 235 242 214 200 204 205 208 216 223 221 223 230 232 234 233 234 234 240 246 249 254 255 253 249 245 242 235 225 222 229 214 216 218 214 217 219 213 214 207 206 207 241
297 267 245 235 217 207 207 207 213 220 221 218 223 234 233 232 234 230 236 239 243 247 253 252 245 245 250 239 218 221 232 215 216 207 204 218 213 207 207 209 222 215 220
288 282 269 251 234 215 208 212 214 219 218 215 220 229 236 234 228 228 231 233 239 241 242 244 238 232 233 231 218 214 217 211 206 203 205 217 208 208 209 205 215 224 224
318 301 289 276 260 238 224 217 217 222 223 218 217 222 231 235 231 231 229 228 235 239 240 240 236 231 225 221 215 212 210 206 201 203 202 212 207 204 205 203 212 223 233
315 307 299 285 274 259 242 228 221 221 220 215 219 225 228 234 237 233 228 226 229 235 237 235 232 231 227 226 229 215 209 209 205 200 197 200 194 201 197 190 202 226 251
300 296 285 274 269 265 255 243 234 224 217 213 218 226 227 231 236 233 227 223 223 228 231 228 224 223 223 224 224 216 212 210 205 198 195 195 192 193 187 192 204 211 227
304 299 291 282 273 270 265 254 245 234 220 216 220 226 228 227 229 227 224 223 223 226 226 228 226 220 217 219 211 207 205 200 197 194 191 186 185 186 187 193 197 198 209
308 303 294 288 280 274 268 262 253 242 226 223 225 225 225 223 225 224 222 221 220 221 222 224 221 219 218 217 214 205 201 194 191 198 194 186 187 191 201 206 207 205 207
310 306 301 292 282 274 268 264 252 245 235 231 231 227 223 225 226 223 220 221 221 220 222 220 209 211 211 209 210 207 193 187 192 195 186 188 184 180 177 187 207 235 243
309 305 300 294 285 277 271 267 258 245 238 237 234 229 225 226 225 222 223 223 221 220 220 218 209 209 213 207 208 206 195 187 196 199 193 186 186 186 176 171 181 210 245
297 295 294 292 286 280 269 266 263 250 242 241 239 234 225 224 224 226 227 223 221 223 219 212 205 208 213 207 203 196 183 193 204 202 194 189 188 191 185 173 184 211 248
298 296 298 298 291 280 269 266 262 254 249 244 237 232 225 222 226 228 226 222 218 218 213 210 203 201 205 204 201 196 191 199 204 199 194 199 197 192 191 188 190 209 226
292 290 291 292 287 283 273 262 260 258 255 246 236 230 224 223 227 227 222 218 214 207 205 207 206 203 203 203 202 199 197 200 199 199 197 196 196 196 200 203 202 213 209
288 286 287 287 286 282 273 267 262 259 252 243 240 233 226 224 223 218 220 215 208 205 204 205 211 211 206 203 206 204 205 201 198 203 197 187 183 192 203 207 208 209 212
285 283 281 285 284 277 270 271 270 264 252 243 242 236 228 220 212 212 215 215 210 209 209 206 213 213 203 201 206 206 207 206 206 202 194 184 184 188 196 205 207 202 192
283 280 279 282 284 279 272 267 271 265 251 248 245 235 226 222 214 211 209 212 213 210 209 210 212 209 200 198 195 196 201 203 207 204 192 187 188 190 186 190 199 190 192
281 276 273 277 280 280 276 271 267 259 253 250 245 237 224 218 217 214 214 215 218 212 210 212 205 201 208 207 195 189 190 184 185 171 169 176 177 183 186 187 189 183 188
280 278 274 274 277 277 275 271 263 252 245 249 243 234 225 220 217 216 227 225 221 218 215 212 207 212 206 193 194 194 192 187 182 175 180 190 190 192 193 194 196 198 203
Height
1488 1488 1488 1489 1489 1490 1491 1491 1492 1493 1493 1493 1493 1493 1495 1496 1496 1497 1497 1498 1498 1499 1500 1500 1501 1502 1503 1503 1504 1505 1506 1507 1508 1509 1509 1510 1510 1511 1512 1513 1513 1514 1514
1486 1486 1487 1487 1487 1488 1489 1489 1490 1491 1491 1491 1491 1491 1492 1493 1493 1494 1494 1495 1495 1496 1496 1497 1498 1499 1499 1500 1501 1501 1502 1503 1504 1505 1506 1506 1507 1507 1508 1508 1509 1509 1510
1484 1485 1485 1485 1486 1486 1487 1487 1488 1488 1488 1489 1489 1489 1490 1490 1490 1491 1491 1492 1492 1493 1493 1494 1494 1495 1496 1496 1497 1498 1499 1499 1500 1502 1504 1504 1503 1503 1504 1504 1505 1505 1505
1482 1483 1483 1483 1484 1484 1485 1485 1485 1485 1486 1486 1486 1486 1486 1487 1487 1488 1488 1488 1489 1489 1489 1490 1491 1491 1492 1492 1493 1494 1495 1495 1496 1498 1499 1500 1500 1501 1499 1500 1501 1501 1501
1480 1480 1481 1481 1482 1482 1482 1483 1483 1483 1483 1483 1483 1483 1484 1484 1484 1485 1485 1485 1485 1486 1486 1486 1486 1487 1487 1488 1489 1490 1490 1491 1492 1493 1494 1495 1496 1497 1496 1495 1496 1496 1497
1477 1478 1479 1479 1479 1480 1480 1480 1480 1480 1480 1480 1480 1480 1481 1481 1481 1481 1481 1481 1482 1482 1482 1482 1483 1483 1483 1484 1485 1485 1486 1487 1488 1489 1490 1491 1491 1492 1492 1492 1491 1491 1492
1475 1476 1477 1477 1477 1477 1477 1477 1477 1477 1477 1477 1477 1477 1477 1477 1478 1478 1478 1477 1478 1478 1478 1478 1478 1479 1479 1480 1481 1481 1482 1483 1483 1484 1485 1486 1487 1487 1488 1488 1487 1487 1487
1474 1474 1475 1475 1475 1475 1474 1474 1474 1474 1474 1474 1474 1474 1474 1474 1474 1474 1474 1474 1473 1474 1474 1474 1474 1474 1475 1475 1476 1476 1477 1478 1479 1479 1480 1481 1482 1483 1484 1484 1484 1483 1482
1472 1473 1473 1473 1472 1472 1472 1472 1471 1471 1471 1470 1470 1470 1470 1470 1470 1470 1470 1470 1469 1470 1470 1470 1470 1470 1471 1471 1471 1472 1473 1473 1474 1475 1476 1476 1477 1478 1479 1480 1480 1481 1479
1470 1470 1470 1470 1469 1469 1469 1469 1468 1468 1468 1467 1467 1466 1466 1466 1466 1466 1466 1466 1466 1466 1465 1466 1466 1466 1466 1467 1467 1468 1468 1469 1470 1470 1471 1472 1473 1473 1474 1475 1475 1476 1476
1469 1468 1468 1467 1466 1466 1466 1465 1465 1465 1464 1464 1463 1463 1462 1462 1462 1461 1461 1461 1461 1461 1461 1461 1461 1461 1462 1462 1463 1463 1464 1464 1465 1466 1466 1467 1468 1469 1469 1470 1471 1471 1471
1467 1466 1465 1464 1464 1463 1463 1462 1462 1461 1461 1460 1460 1459 1458 1458 1457 1457 1457 1457 1457 1457 1457 1457 1457 1457 1458 1458 1459 1459 1459 1460 1460 1461 1462 1462 1463 1464 1465 1465 1466 1466 1466
1464 1464 1463 1462 1461 1460 1459 1459 1458 1457 1457 1456 1456 1455 1454 1454 1453 1453 1453 1453 1453 1453 1453 1453 1453 1453 1453 1454 1454 1455 1455 1456 1456 1457 1458 1458 1459 1459 1460 1461 1461 1462 1462
1462 1461 1460 1459 1458 1457 1456 1455 1454 1453 1453 1452 1451 1450 1450 1449 1449 1449 1448 1448 1448 1448 1448 1448 1448 1449 1449 1450 1450 1450 1451 1451 1452 1453 1453 1454 1455 1455 1456 1456 1457 1457 1457
1459 1458 1457 1456 1455 1453 1452 1451 1450 1449 1448 1447 1446 1445 1445 1445 1444 1444 1444 1444 1444 1444 1444 1444 1444 1444 1445 1445 1446 1446 1447 1447 1448 1448 1449 1450 1450 1451 1452 1452 1452 1453 1452
1456 1455 1454 1452 1451 1449 1448 1447 1445 1444 1444 1442 1441 1440 1440 1440 1440 1439 1439 1439 1439 1439 1439 1439 1439 1440 1440 1441 1441 1442 1442 1443 1443 1444 1445 1445 1446 1447 1448 1448 1448 1449 1448
1454 1452 1450 1448 1446 1445 1443 1442 1440 1440 1438 1437 1436 1435 1435 1435 1435 1435 1434 1434 1434 1434 1434 1434 1435 1435 1436 1436 1437 1438 1438 1438 1439 1440 1440 1441 1442 1443 1443 1444 1444 1444 1444
1450 1448 1446 1444 1442 1440 1439 1437 1436 1434 1433 1432 1431 1430 1430 1429 1429 1429 1429 1429 1429 1429 1429 1429 1430 1430 1431 1432 1432 1433 1433 1434 1434 1435 1436 1437 1438 1438 1439 1439 1439 1440 1440
1447 1445 1443 1440 1438 1435 1434 1432 1430 1429 1428 1427 1426 1425 1425 1424 1424 1423 1423 1424 1424 1424 1424 1425 1425 1425 1426 1427 1427 1428 1428 1429 1430 1431 1432 1432 1433 1434 1434 1435 1435 1435 1435
1443 1440 1438 1435 1433 1431 1429 1427 1425 1424 1422 1422 1421 1420 1420 1419 1418 1418 1418 1418 1418 1418 1419 1419 1420 1420 1421 1422 1423 1423 1423 1424 1425 1426 1427 1428 1429 1429 1430 1430 1430 1430 1430
1438 1435 1433 1430 1428 1426 1424 1422 1420 1418 1417 1416 1415 1415 1414 1414 1413 1413 1413 1413 1413 1413 1414 1414 1415 1415 1416 1417 1417 1418 1419 1419 1420 1421 1422 1423 1424 1425 1426 1426 1427 1426 1426
1432 1430 1427 1424 1422 1421 1419 1416 1414 1413 1412 1411 1410 1409 1408 1408 1408 1408 1408 1408 1408 1408 1408 1409 1409 1410 1411 1412 1412 1413 1414 1415 1416 1416 1418 1419 1420 1421 1422 1422 1422 1423 1422
1426 1424 1422 1419 1417 1415 1413 1411 1409 1408 1406 1405 1404 1403 1402 1402 1402 1402 1402 1402 1402 1402 1403 1403 1404 1405 1406 1406 1407 1408 1409 1410 1411 1412 1413 1414 1415 1416 1417 1418 1418 1419 1419
1421 1418 1416 1413 1411 1409 1408 1405 1404 1402 1400 1399 1398 1397 1397 1396 1396 1396 1396 1397 1397 1397 1397 1398 1398 1399 1400 1401 1402 1403 1404 1405 1406 1408 1409 1410 1411 1412 1413 1414 1414 1414 1415
1415 1412 1410 1407 1405 1403 1401 1399 1398 1396 1394 1393 1392 1391 1391 1391 1390 1390 1391 1391 1391 1392 1393 1393 1394 1395 1395 1396 1398 1399 1400 1401 1402 1403 1404 1405 1407 1408 1408 1409 1410 1410 1411
1408 1406 1404 1401 1399 1397 1395 1393 1392 1390 1388 1387 1386 1386 1385 1385 1385 1385 1385 1385 1387 1387 1388 1389 1390 1390 1391 1392 1393 1394 1395 1397 1398 1399 1399 1400 1401 1403 1404 1405 1406 1406 1407